Location: Acequia del Cap
(41.7000°N, 0.6167°E)
Time: 01:03:21
(UTC+00:00)

Cosmos 2233 Rocket - Pass Details

Date: 07 August 2020
Orbit: 952 x 991 km, 82.9° (Epoch: 22 September)

Event Time Altitude Azimuth Distance (km) Brightness Sun altitude
Exits shadow 00:10:41 52° 291° (WNW) 1,219 4.5 -31.9°
Drops below altitude 10° 00:16:35 10° 358° (N) 2,763 7.2 -31.9°
Sets 00:19:13 0° 3° (N) 3,716 8.2 -31.8°
